User: anonymous   Login
Location: Hohe Wand Kleine Kanzel
(47.8330°N, 16.0170°E)
Time: 06:01:30
(UTC+02:00)
Language:

A-11 Canister half - Orbit

View from above orbital plane
View from above orbital plane
View from above satellite
View from above satellite

Ground track
Ground track

The orbit data is extracted from the following two-line orbital elements,

1 00053U 60009E   21217.85018310 -.00000062  00000-0  21997-3 0  9992
2 00053  47.2778  61.0462 0097249 225.5278 133.7527 12.17257245719041
Epoch (UTC): 05 August 2021 20:24:15
Eccentricity: 0.0097249
inclination: 47.2778°
perigee height: 1527 km
apogee height: 1682 km
right ascension of ascending node: 61.0462°
argument of perigee: 225.5278°
revolutions per day: 12.17257245
mean anomaly at epoch: 133.7527°
orbit number at epoch: 71904

The dashed part of the orbit path shows where the satellite is in the earth's shadow,  

DLR